OK2ARM-12 Weather Reports


time (UTC)temp
C
wind
direction
speed
KPH
gust
KPH
rain 1hr
cm
rain 24hr
cm
rain mn
cm
humidity
%
barometer
mb
20260506144648 19 0.0 0.0 0.00 0.00 0.00 45 1005.6
20260506143648 18 0.0 0.0 0.00 0.00 0.00 48 1005.8
20260506141423 18 0.0 0.0 0.00 0.00 0.00 50 1006.1
20260506140423 18 0.0 0.0 0.00 0.00 0.00 49 1006.0
20260506135423 18 0.0 0.0 0.00 0.00 0.00 47 1006.1
20260506134423 18 0.0 0.0 0.00 0.00 0.00 49 1006.3
20260506133423 18 0.0 0.0 0.00 0.00 0.00 47 1006.3
20260506132423 19 0.0 0.0 0.00 0.00 0.00 46 1006.6
20260506131423 18 0.0 0.0 0.00 0.00 0.00 45 1006.5
20260506130423 18 0.0 0.0 0.00 0.00 0.00 45 1006.8
20260506125423 19 0.0 0.0 0.00 0.00 0.00 43 1006.8
20260506124423 19 0.0 0.0 0.00 0.00 0.00 45 1007.0
20260506123423 18 0.0 0.0 0.00 0.00 0.00 44 1007.1
20260506122423 18 0.0 0.0 0.00 0.00 0.00 46 1007.2
20260506121424 18 0.0 0.0 0.00 0.00 0.00 44 1007.3
20260506120423 18 0.0 0.0 0.00 0.00 0.00 46 1007.4
20260506115423 18 0.0 0.0 0.00 0.00 0.00 43 1007.4
20260506114423 18 0.0 0.0 0.00 0.00 0.00 44 1007.4
20260506112159 18 0.0 0.0 0.00 0.00 0.00 47 1007.4
20260506111159 17 0.0 0.0 0.00 0.00 0.00 49 1007.5
20260506110159 18 0.0 0.0 0.00 0.00 0.00 46 1007.7
20260506105159 17 0.0 0.0 0.00 0.00 0.00 50 1007.8
20260506104159 18 0.0 0.0 0.00 0.00 0.00 52 1007.8
20260506100712 17 0.0 0.0 0.00 0.00 0.00 53 1008.1
20260506095712 17 0.0 0.0 0.00 0.00 0.00 52 1008.3
20260506094712 17 0.0 0.0 0.00 0.00 0.00 53 1008.4
20260506092448 17 0.0 0.0 0.00 0.00 0.00 55 1008.3
20260506091449 16 0.0 0.0 0.00 0.00 0.00 56 1008.3
20260506090448 17 0.0 0.0 0.00 0.00 0.00 58 1008.4
20260506085448 16 0.0 0.0 0.00 0.00 0.00 59 1008.3
20260506084448 15 0.0 0.0 0.00 0.00 0.00 61 1008.3
20260506083448 16 0.0 0.0 0.00 0.00 0.00 60 1008.4
20260506082448 15 0.0 0.0 0.00 0.00 0.00 62 1008.5
20260506081448 16 0.0 0.0 0.00 0.00 0.00 62 1008.6
20260506072959 15 0.0 0.0 0.00 0.00 0.00 67 1008.5
20260506071959 14 0.0 0.0 0.00 0.00 0.00 67 1008.7
20260506070959 13 0.0 0.0 0.00 0.00 0.00 66 1008.7
20260506061735 12 0.0 0.0 0.00 0.00 0.00 75 1008.5
20260506060735 12 0.0 0.0 0.00 0.00 0.00 75 1008.5
20260506045024 10 0.0 0.0 0.00 0.00 0.00 93 1007.9
20260506044025 11 0.0 0.0 0.00 0.00 0.00 92 1007.9
20260506043025 11 0.0 0.0 0.00 0.00 0.00 90 1007.9
20260506040800 11 0.0 0.0 0.00 0.00 0.00 90 1007.6
20260506035800 11 0.0 0.0 0.00 0.00 0.00 90 1007.5
20260506034800 11 0.0 0.0 0.00 0.00 0.00 93 1007.4
20260506033800 11 0.0 0.0 0.00 0.00 0.00 95 1007.4
20260506032800 11 0.0 0.0 0.00 0.00 0.00 95 1007.2
20260506031800 11 0.0 0.0 0.00 0.00 0.00 95 1007.3
20260506030800 11 0.0 0.0 0.00 0.00 0.00 94 1007.3
20260506025800 11 0.0 0.0 0.00 0.00 0.00 93 1007.3
20260506024800 11 0.0 0.0 0.00 0.00 0.00 92 1007.4
20260506023801 11 0.0 0.0 0.00 0.00 0.00 92 1007.3
20260506022800 11 0.0 0.0 0.00 0.00 0.00 91 1007.3
20260506021800 11 0.0 0.0 0.00 0.00 0.00 90 1007.3
20260506020800 11 0.0 0.0 0.00 0.00 0.00 90 1007.3
20260506015800 11 0.0 0.0 0.00 0.00 0.00 88 1007.3
20260506014800 11 0.0 0.0 0.00 0.00 0.00 85 1007.3
20260506011313 11 0.0 0.0 0.00 0.00 0.00 79 1006.7
20260506010313 11 0.0 0.0 0.00 0.00 0.00 78 1006.5
20260506005313 12 0.0 0.0 0.00 0.00 0.00 75 1006.4
20260506004314 12 0.0 0.0 0.00 0.00 0.00 74 1006.6
20260506003313 12 0.0 0.0 0.00 0.00 0.00 73 1006.8
20260506002313 12 0.0 0.0 0.00 0.00 0.00 72 1007.0
20260506000050 12 0.0 0.0 0.00 0.00 0.00 70 1006.5
20260505235049 12 0.0 0.0 0.00 0.00 0.00 69 1006.4
20260505232826 12 0.0 0.0 0.00 0.00 0.00 69 1006.1
20260505231827 12 0.0 0.0 0.00 0.00 0.00 69 1006.4
20260505225602 13 0.0 0.0 0.00 0.00 0.00 65 1006.2
20260505224602 13 0.0 0.0 0.00 0.00 0.00 65 1006.2
20260505222339 13 0.0 0.0 0.00 0.00 0.00 64 1006.0
20260505221339 13 0.0 0.0 0.00 0.00 0.00 63 1006.0
20260505220338 13 0.0 0.0 0.00 0.00 0.00 63 1006.0
20260505215339 13 0.0 0.0 0.00 0.00 0.00 62 1005.9
20260505214339 13 0.0 0.0 0.00 0.00 0.00 61 1005.7
20260505210851 13 0.0 0.0 0.00 0.00 0.00 58 1005.5
20260505205851 13 0.0 0.0 0.00 0.00 0.00 58 1005.6
20260505204851 13 0.0 0.0 0.00 0.00 0.00 57 1005.6
20260505203851 14 0.0 0.0 0.00 0.00 0.00 57 1005.7
20260505202851 14 0.0 0.0 0.00 0.00 0.00 56 1005.7
20260505201852 14 0.0 0.0 0.00 0.00 0.00 56 1005.6
20260505200851 15 0.0 0.0 0.00 0.00 0.00 55 1005.7
20260505195851 15 0.0 0.0 0.00 0.00 0.00 55 1005.7
20260505194852 15 0.0 0.0 0.00 0.00 0.00 54 1005.6
20260505193851 15 0.0 0.0 0.00 0.00 0.00 54 1005.7
20260505192852 15 0.0 0.0 0.00 0.00 0.00 53 1005.6
20260505191851 15 0.0 0.0 0.00 0.00 0.00 52 1005.5
20260505190851 16 0.0 0.0 0.00 0.00 0.00 51 1005.5
20260505184627 16 0.0 0.0 0.00 0.00 0.00 49 1005.5
20260505182403 17 0.0 0.0 0.00 0.00 0.00 46 1005.3
20260505181403 17 0.0 0.0 0.00 0.00 0.00 45 1005.3
20260505180404 18 0.0 0.0 0.00 0.00 0.00 43 1005.2
20260505175403 18 0.0 0.0 0.00 0.00 0.00 41 1005.2
20260505174403 19 0.0 0.0 0.00 0.00 0.00 40 1005.2
20260505173403 19 0.0 0.0 0.00 0.00 0.00 38 1005.1
20260505172403 20 0.0 0.0 0.00 0.00 0.00 37 1005.1
20260505171404 20 0.0 0.0 0.00 0.00 0.00 36 1005.0
20260505170403 20 0.0 0.0 0.00 0.00 0.00 34 1005.0
20260505164141 21 0.0 0.0 0.00 0.00 0.00 26 1005.1
20260505161916 21 0.0 0.0 0.00 0.00 0.00 25 1005.3
20260505160916 21 0.0 0.0 0.00 0.00 0.00 24 1005.3
20260505152916 21 0.0 0.0 0.00 0.00 0.00 23 1005.6
20260505151916 21 0.0 0.0 0.00 0.00 0.00 24 1005.8